Hourly Data Report for September 23, 2017

All times are specified in Local Standard Time (LST). Add 1 hour to adjust for Daylight Saving Time where and when it is observed.

EAST POINT (AUT)
PRINCE EDWARD ISLAND

46°27'36.000" N
61°59'18.000" W
7.70 m
8300418
71412
WEP

Download Data

Hourly Data (September 2017)
Hourly Data Report for September 23, 2017
Temp Definition
°C
Dew Point Temp Definition
°C
Rel Hum Definition
%
Wind Dir Definition
10's deg

Wind Spd Definition
km/h
Visibility Definition
km
Stn Press Definition
kPa
Hmdx Definition


Wind Chill Definition


Weather Definition


TIME
00:00 12.1 10.5 90 0 1   101.81     LegendNANA
01:00 12.4 11.1 92 20 7   101.79     LegendNANA
02:00 13.3 12.1 92 20 10   101.71     LegendNANA
03:00 14.6 13.3 92 21 14   101.64     LegendNANA
04:00 14.8 13.2 91 20 15   101.58     LegendNANA
05:00 15.4 13.1 86 19 16   101.52     LegendNANA
06:00 15.3 12.8 85 19 13   101.48     LegendNANA
07:00 16.8 13.8 82 20 14   101.47     LegendNANA
08:00 17.0 12.9 77 22 13   101.48     LegendNANA
09:00 17.4 12.7 74 20 22   101.45     LegendNANA
10:00 18.0 12.6 70 20 24   101.37     LegendNANA
11:00 18.7 14.3 76 20 23   101.27     LegendNANA
12:00 19.1 14.9 77 21 24   101.30     LegendNANA
13:00 20.9 16.4 75 20 23   101.16 26   LegendNANA
14:00 22.7 17.1 71 19 17   101.12 28   LegendNANA
15:00 25.2 13.7 49 25 17   101.05 28   LegendNANA
16:00 21.8 14.6 64 28 19   101.10 26   LegendNANA
17:00 19.5 15.4 77 29 13   101.21     LegendNANA
18:00 18.2 14.2 78 34 23   101.33     LegendNANA
19:00 18.2 13.7 75 35 22   101.39     LegendNANA
20:00 17.7 13.4 76 34 17   101.44     LegendNANA
21:00 17.5 13.4 77 1 16   101.50     LegendNANA
22:00 17.5 13.2 76 3 23   101.59     LegendNANA
23:00 17.1 12.3 73 4 22   101.60     LegendNANA

Notes on Data Quality.

Legend

  • E = Estimated
  • M = Missing
  • NA = Not Available
  • ‡ = Partner data that is not subject to review by the National Climate Archives
Date modified: